Find Starlink 32599

NORAD ID: 62048 Int'l Des: 2024-216 Owner: SPXS Country: US Constellation: starlink operational
LEOCIRCULAR

当前视图

正在加载3D地球...

About Starlink 32599

Starlink 32599 (NORAD 62048) is a starlink constellation satellite (v2 mini) launched Nov 21, 2024 by SPXS of US. It operates in LEO, CIRCULAR orbit with a mass of 730.00 kg.

即将过境

Passes for default location (London). Set your location on the main map for personalized predictions.

高度历史

Loading altitude history...

两行轨道根数

1 62048U 24216S 26263.29504142 .00006447 00000-0 24356-3 0 9995
2 62048 42.9994 244.5904 0001334 268.9038 91.1661 15.27584895103556
Epoch: Sep 20, 2026 • Age: 25 hours

当前状态

高度 489.2 km
远地点 / 近地点 N/A
速度 7.62 km/s
星下点 -26.66°S, 22.73°W
发射日期 Nov 21, 2024
运行时间 1.8 years
类型 internet

技术详情

分类 Payload
质量 730.00 kg
干质量 700.00 kg
长度 0.30 m
跨度 29.00 m
形状 ? Box + pan
制造商 SPXS
平台类型 Starlink V2M
阶段状态 In Orbit
所有者/国家 SPXS/US

Most Searched